Date String (YYYY-MM-DD hh:mm:ss) UTC,Instrument flags,Ambient pressure (hPa),Sample flow (lpm),Bypass flow (lpm),Sample temperature (°C),Ambient temperature (°C),ASC tube jacket temperature (°C),LED temperature (°C),Box temperature (°C),Sample RH (%),Span deviation,Mass concentration (μg/m³),Mass concentration (μg/m³),Mass concentration (μg/m³)
DateTimeUTC,F1_M11,P_M11,Q1_M11,Q2_M11,T1_M11,T2_M11,T3_M11,T4_M11,T5_M11,U1_M11,ZSPAN_M11,X0_M11,X2_M11,X1_M11
2021-10-17 22:00:00,,0826.3,4.99,0.00,29.5,27.5,00.0,38.6,31.2,10.5,0000.0,0014.10,0004.19,0003.36
2021-10-17 22:01:00,,0826.0,5.01,0.00,29.5,27.9,00.0,38.6,31.3,10.5,0000.0,0014.50,0004.22,0003.38
2021-10-17 22:02:00,,0825.9,5.00,0.00,29.6,28.2,00.0,38.6,31.4,10.4,0000.0,0015.01,0004.20,0003.40
2021-10-17 22:03:00,,0826.0,5.00,0.00,29.6,28.4,00.0,38.6,31.5,10.5,0000.0,0013.92,0004.21,0003.41
2021-10-17 22:04:00,,0826.0,4.99,0.00,29.7,28.6,00.0,38.6,31.6,10.5,0000.0,0013.79,0004.25,0003.44
2021-10-17 22:05:00,,0826.2,4.99,0.00,29.7,28.8,00.0,38.6,31.6,10.5,0000.0,0014.47,0004.30,0003.47
2021-10-17 22:06:00,,0825.8,5.01,0.00,29.8,28.9,00.0,38.7,31.7,10.3,0000.0,0014.49,0004.34,0003.50
2021-10-17 22:07:00,,0825.7,5.00,0.00,29.8,29.1,00.0,38.7,31.7,10.4,0000.0,0014.05,0004.38,0003.53
2021-10-17 22:08:00,,0825.7,5.01,0.00,29.9,29.2,00.0,38.7,31.8,10.4,0000.0,0013.57,0004.41,0003.54
2021-10-17 22:09:00,,0825.7,4.99,0.00,29.9,29.3,00.0,38.8,31.9,10.3,0000.0,0012.01,0004.43,0003.56
2021-10-17 22:10:00,,0825.7,5.00,0.00,29.9,28.4,00.0,38.8,31.6,10.3,0000.0,0011.81,0004.46,0003.60
2021-10-17 22:11:00,,0825.7,5.00,0.00,29.8,26.3,00.0,38.8,31.1,10.4,0000.0,0011.82,0004.49,0003.64
2021-10-17 22:12:00,,0825.6,5.00,0.00,29.6,25.8,00.0,38.7,30.9,10.4,0000.0,0011.38,0004.55,0003.69
2021-10-17 22:13:00,,0825.6,4.99,0.00,29.5,26.2,00.0,38.7,31.0,10.5,0000.0,0010.82,0004.61,0003.74
2021-10-17 22:14:00,,0825.7,5.00,0.00,29.5,26.6,00.0,38.7,31.1,10.4,0000.0,0010.63,0004.63,0003.80
2021-10-17 22:15:00,,0825.6,5.00,0.00,29.5,27.1,00.0,38.6,31.2,10.4,0000.0,0010.59,0004.66,0003.85
2021-10-17 22:16:00,,0825.6,5.01,0.00,29.5,27.5,00.0,38.6,31.3,10.4,0000.0,0010.03,0004.70,0003.89
2021-10-17 22:17:00,,0825.6,5.00,0.00,29.5,27.8,00.0,38.6,31.3,10.3,0000.0,0010.27,0004.75,0003.92
2021-10-17 22:18:00,,0825.6,5.00,0.00,29.6,28.1,00.0,38.6,31.4,10.2,0000.1,0010.66,0004.74,0003.92
2021-10-17 22:19:00,,0825.6,5.00,0.00,29.6,28.4,00.0,38.6,31.5,10.3,-000.9,0010.46,0004.72,0003.92
2021-10-17 22:20:00,,0825.5,5.01,0.00,29.7,28.6,00.0,38.6,31.6,10.3,-001.9,0010.37,0004.71,0003.90
2021-10-17 22:21:00,,0825.6,5.00,0.00,29.7,28.8,00.0,38.7,31.6,10.3,-002.3,0010.81,0004.71,0003.87
2021-10-17 22:22:00,,0825.5,5.00,0.00,29.8,28.9,00.0,38.7,31.7,10.2,-001.7,0011.43,0004.69,0003.86
2021-10-17 22:23:00,,0825.6,5.00,0.00,29.8,29.0,00.0,38.7,31.8,10.2,0000.0,0011.43,0004.63,0003.82
2021-10-17 22:24:00,,0825.6,5.00,0.00,29.9,29.1,00.0,38.7,31.8,10.0,0000.0,0011.00,0004.59,0003.76
2021-10-17 22:25:00,,0825.6,5.00,0.00,29.9,29.2,00.0,38.8,31.9,09.8,0000.0,0011.47,0004.56,0003.73
2021-10-17 22:26:00,,0825.6,5.00,0.00,30.0,29.3,00.0,38.8,31.9,09.9,0000.0,0011.69,0004.52,0003.68
2021-10-17 22:27:00,,0825.6,4.99,0.00,30.0,28.5,00.0,38.8,31.7,09.8,-000.4,0011.52,0004.47,0003.67
2021-10-17 22:28:00,,0825.5,5.01,0.00,29.8,26.4,00.0,38.8,31.1,09.9,-000.7,0011.31,0004.42,0003.66
2021-10-17 22:29:00,,0825.5,4.99,0.00,29.6,25.7,00.0,38.8,30.9,10.0,-000.1,0011.09,0004.45,0003.66
2021-10-17 22:30:00,,0825.5,5.01,0.00,29.6,26.1,00.0,38.7,31.0,10.0,-000.4,0011.20,0004.48,0003.68
2021-10-17 22:31:00,,0825.5,4.99,0.00,29.5,26.6,00.0,38.7,31.1,10.0,0000.0,0011.39,0004.54,0003.71
2021-10-17 22:32:00,,0825.5,5.01,0.00,29.5,27.1,00.0,38.7,31.2,10.0,0000.0,0010.85,0004.56,0003.73
2021-10-17 22:33:00,,0825.5,5.01,0.00,29.5,27.5,00.0,38.7,31.3,10.0,0000.0,0010.42,0004.60,0003.73
2021-10-17 22:34:00,,0825.5,5.00,0.00,29.6,27.9,00.0,38.6,31.4,10.0,0000.0,0010.25,0004.59,0003.73
2021-10-17 22:35:00,,0825.5,4.99,0.00,29.6,28.2,00.0,38.6,31.5,10.0,0000.0,0010.27,0004.58,0003.76
2021-10-17 22:36:00,,0825.4,5.00,0.00,29.7,28.4,00.0,38.7,31.5,10.1,0000.0,0009.67,0004.63,0003.79
2021-10-17 22:37:00,,0825.5,4.99,0.00,29.7,28.6,00.0,38.7,31.6,10.1,0000.0,0009.91,0004.74,0003.89
2021-10-17 22:38:00,,0825.5,5.01,0.00,29.8,28.8,00.0,38.7,31.7,10.1,-000.6,0010.34,0004.88,0003.99
2021-10-17 22:39:00,,0825.5,5.00,0.00,29.8,28.9,00.0,38.7,31.8,10.0,-001.6,0011.06,0005.04,0004.12
2021-10-17 22:40:00,,0825.5,5.00,0.00,29.9,29.0,00.0,38.7,31.8,09.9,-001.1,0011.61,0005.17,0004.24
2021-10-17 22:41:00,,0825.5,4.99,0.00,29.9,29.1,00.0,38.8,31.8,09.9,-001.6,0011.91,0005.27,0004.36
2021-10-17 22:42:00,,0825.5,5.01,0.00,30.0,29.2,00.0,38.8,31.9,09.9,-003.4,0012.54,0005.32,0004.46
2021-10-17 22:43:00,,0825.5,4.99,0.00,30.0,29.3,00.0,38.8,32.0,09.8,-003.4,0013.69,0005.42,0004.57
2021-10-17 22:44:00,,0825.5,5.00,0.00,30.0,28.6,00.0,38.9,31.8,09.7,-003.4,0014.11,0005.51,0004.68
2021-10-17 22:45:00,,0825.5,5.01,0.00,29.9,26.4,00.0,38.8,31.1,09.8,-003.2,0014.62,0005.62,0004.78
2021-10-17 22:46:00,,0825.4,4.99,0.00,29.7,25.7,00.0,38.8,31.0,09.8,-003.1,0015.24,0005.71,0004.88
2021-10-17 22:47:00,,0825.4,5.00,0.00,29.6,26.1,00.0,38.8,31.1,09.9,-002.6,0015.50,0005.73,0004.95
2021-10-17 22:48:00,,0825.4,5.00,0.00,29.6,26.6,00.0,38.7,31.1,09.9,-003.2,0015.88,0005.71,0004.93
2021-10-17 22:49:00,,0825.4,5.00,0.00,29.6,27.1,00.0,38.7,31.2,10.0,-003.3,0015.34,0005.61,0004.87
2021-10-17 22:50:00,,0825.4,5.00,0.00,29.6,27.5,00.0,38.7,31.3,10.0,-003.5,0014.54,0005.49,0004.81
2021-10-17 22:51:00,,0825.4,5.01,0.00,29.6,27.9,00.0,38.7,31.4,10.2,-003.1,0013.85,0005.42,0004.77
2021-10-17 22:52:00,,0825.4,4.99,0.00,29.7,28.2,00.0,38.7,31.5,10.3,-002.0,0014.01,0005.49,0004.78
2021-10-17 22:53:00,,0825.4,5.01,0.00,29.7,28.4,00.0,38.7,31.5,10.4,0001.3,0013.90,0005.59,0004.87
2021-10-17 22:54:00,,0825.4,4.98,0.00,29.7,28.6,00.0,38.7,31.6,10.4,0001.9,0013.27,0005.71,0004.95
2021-10-17 22:55:00,,0825.4,5.00,0.00,29.8,28.8,00.0,38.7,31.7,10.3,0000.2,0013.01,0005.82,0005.05
2021-10-17 22:56:00,,0825.4,5.01,0.00,29.8,28.9,00.0,38.7,31.8,10.2,-001.1,0013.50,0005.92,0005.16
2021-10-17 22:57:00,,0825.4,4.99,0.00,29.9,29.0,00.0,38.8,31.8,10.2,-001.1,0014.26,0006.09,0005.28
2021-10-17 22:58:00,,0825.4,5.00,0.00,29.9,29.1,00.0,38.8,31.9,10.2,-001.0,0014.66,0006.23,0005.39
2021-10-17 22:59:00,,0825.4,5.01,0.00,30.0,29.2,00.0,38.8,31.9,10.2,-000.3,0014.19,0006.37,0005.52
